{"data":{"norad_id":63762,"epoch":"2026-05-25T03:11:00.107232Z","epoch_age_seconds":66870,"freshness":"FRESH","line1":"1 63762U 25089M   26145.13264013  .00152878  00000+0  11695-2 0  9990","line2":"2 63762  43.0020 191.8568 0002239 261.4345  98.6269 15.70912319 62156","mean_motion":15.70912319,"eccentricity":0.0002239,"inclination_deg":43.002,"raan_deg":191.8568,"arg_perigee_deg":261.4345,"mean_anomaly_deg":98.6269,"bstar":0.0011695,"rev_number":6215,"period_min":91.66647829948,"perigee_km":354.78053042172,"apogee_km":357.79620610163,"semimajor_km":6734.4253682617,"source":"CELESTRAK","updated_at":"2026-05-25T13:38:20.105402Z"}}